Location: Czekan�w
(50.3488°N, 18.7344°E)
Time: 20:07:00
(UTC+00:00)

Cosmos 1862 - Pass Details

Date: 17 February 2020
Orbit: 538 x 556 km, 82.5° (Epoch: 03 April)

Event Time Altitude Azimuth Distance (km) Brightness Sun altitude
Rises 04:51:21 0° 347° (NNW) 2,711 6.7 -10.6°
Reaches altitude 10° 04:53:32 10° 345° (NNW) 1,813 5.7 -10.2°
Maximum altitude 04:57:29 67° 263° (W) 592 3.2 -9.6°
Drops below altitude 10° 05:01:24 10° 181° (S) 1,797 6.0 -9.0°
Sets 05:03:33 0° 179° (S) 2,684 7.0 -8.6°
